"2010-09-13 00:00:00",155821,5.645,159.1,2.312,0.1,20.74,109.336,23.19,24.09,8.64,0,111.1,13.14,24.02,121.1
"2010-09-13 00:00:30",155822,5.578,158.5,1.785,0.134,20.71,109.336,23.19,24.08,8.58,0,111.1,13.14,24.02,120.5
"2010-09-13 00:01:00",155823,6.077,159.6,2.219,0.252,20.74,109.336,23.19,24.09,8.59,0,111.1,13.14,24.02,121.6
"2010-09-13 00:01:30",155824,6.352,153.2,2.345,0.317,20.72,109.336,23.19,24.08,8.64,0,111.1,13.14,24.02,115.2
"2010-09-13 00:02:00",155825,5.959,151.7,1.774,0.179,20.73,109.336,23.19,24.08,8.62,0,111.1,13.14,24.02,113.7
"2010-09-13 00:02:30",155826,6.38,155.5,1.471,0.121,20.68,109.3352,23.19,24.09,8.68,0,111.1,13.14,24.02,117.5
"2010-09-13 00:03:00",155827,6.427,153.9,0.853,0.163,20.69,109.3332,23.18,24.08,8.66,0,111,13.14,24.01,115.9
"2010-09-13 00:03:30",155828,6.221,154.4,0.916,0.094,20.68,109.3298,23.17,24.08,8.49,0,111.1,13.14,24.01,116.4
"2010-09-13 00:04:00",155829,6.184,155,2.561,0.2,20.71,109.3279,23.17,24.07,8.63,0,111,13.14,24.00,117.0
"2010-09-13 00:04:30",155830,6.198,155.3,0.912,0.175,20.69,109.324,23.16,24.06,8.58,0,111,13.14,23.99,117.3
"2010-09-13 00:05:00",155831,6.19,155.9,1.189,0.12,20.62,109.3275,23.17,24.08,8.65,0,111,13.14,24.00,117.9
"2010-09-13 00:05:30",155832,6.216,156.5,1.666,0.136,20.61,109.3265,23.16,24.07,8.81,0,111,13.14,24.00,118.5
"2010-09-13 00:06:00",155833,5.813,155.3,1.52,0.171,20.52,109.3375,23.19,24.07,8.79,0,111,13.14,24.03,117.3
"2010-09-13 00:06:30",155834,5.776,153,1.541,0.148,20.51,109.3415,23.2,24.07,8.64,0,111,13.14,24.04,115.0
"2010-09-13 00:07:00",155835,5.845,151.4,1.497,0.153,20.48,109.3495,23.22,24.07,8.58,0,111,13.15,24.06,113.4
"2010-09-13 00:07:30",155836,5.896,152.5,1.275,0.091,20.42,109.3565,23.24,24.07,8.59,0,111,13.15,24.07,114.5
"2010-09-13 00:08:00",155837,5.909,153.1,0.698,0.124,20.42,109.3602,23.25,24.07,8.58,0,111,13.15,24.08,115.1
"2010-09-13 00:08:30",155838,5.919,153.3,0.738,0.097,20.4,109.3625,23.26,24.08,8.63,0,111,13.15,24.09,115.3
"2010-09-13 00:09:00",155839,6.071,154.1,0.895,0.056,20.33,109.3637,23.26,24.09,8.68,0,111,13.15,24.09,116.1
"2010-09-13 00:09:30",155840,5.926,152.6,1.357,0.116,20.29,109.3637,23.26,24.09,8.63,0,111,13.15,24.09,114.6
"2010-09-13 00:10:00",155841,5.896,153.2,2.209,0.141,20.28,109.3643,23.26,24.1,8.75,0,111,13.15,24.09,115.2
"2010-09-13 00:10:30",155842,6.238,156.6,2.001,0.108,20.28,109.3655,23.26,24.09,8.75,0,111,13.15,24.10,118.6
"2010-09-13 00:11:00",155843,6.008,157.1,1.198,0.126,20.27,109.3661,23.27,24.1,8.67,0,111,13.15,24.10,119.1
"2010-09-13 00:11:30",155844,5.974,155.2,1.262,0.14,20.23,109.3671,23.27,24.1,8.71,0,111,13.15,24.10,117.2
"2010-09-13 00:12:00",155845,6.121,156.4,0.892,0.19,20.23,109.3683,23.27,24.11,8.82,0,111,13.15,24.10,118.4
"2010-09-13 00:12:30",155846,5.893,159.7,1.643,0.147,20.24,109.368,23.27,24.1,8.73,0,111,13.15,24.10,121.7
"2010-09-13 00:13:00",155847,6.138,159.4,1.424,0.096,20.11,109.3677,23.27,24.09,8.92,0,111,13.15,24.10,121.4
"2010-09-13 00:13:30",155848,6.468,158.7,1.423,0.103,20.12,109.3689,23.27,24.11,8.9,0,111,13.15,24.11,120.7
"2010-09-13 00:14:00",155849,6.445,157.7,0.957,0.144,20.09,109.368,23.27,24.11,8.9,0,111,13.15,24.10,119.7
"2010-09-13 00:14:30",155850,6.458,156.7,1.309,0.121,20.08,109.3692,23.27,24.11,9.06,0,111,13.15,24.11,118.7
"2010-09-13 00:15:00",155851,6.627,157.8,1.143,0.137,20.09,109.3676,23.27,24.11,9.21,0,111,13.15,24.10,119.8
"2010-09-13 00:15:30",155852,6.364,159.9,1.985,0.322,20.21,109.3635,23.26,24.1,8.93,0,111,13.15,24.09,121.9
"2010-09-13 00:16:00",155853,5.888,159,2.336,0.137,20.24,109.3671,23.27,24.1,8.61,0,111,13.15,24.10,121.0
"2010-09-13 00:16:30",155854,6.12,157.6,2.201,0.192,20.21,109.3705,23.28,24.1,8.64,0,111,13.15,24.11,119.6
"2010-09-13 00:17:00",155855,6.199,155.8,1.772,0.104,20.24,109.371,23.28,24.1,8.51,0,111,13.15,24.11,117.8
"2010-09-13 00:17:30",155856,5.927,158.6,1.601,0.113,20.22,109.372,23.28,24.11,8.44,0,111,13.14,24.11,120.6
"2010-09-13 00:18:00",155857,6.232,161.3,1.378,0.156,20.28,109.372,23.28,24.1,8.47,0,111,13.14,24.11,123.3
"2010-09-13 00:18:30",155858,5.979,161.2,0.888,0.081,20.32,109.371,23.28,24.12,8.46,0,111,13.14,24.11,123.2
"2010-09-13 00:19:00",155859,5.803,162,0.571,0.125,20.4,109.372,23.28,24.12,8.64,0,111,13.14,24.11,124.0
"2010-09-13 00:19:30",155860,5.76,162.4,1.013,0.116,20.48,109.3723,23.28,24.11,8.64,0,111,13.14,24.12,124.4
"2010-09-13 00:20:00",155861,5.796,161.8,1.554,0.078,20.53,109.372,23.28,24.11,8.72,0,111,13.14,24.11,123.8
"2010-09-13 00:20:30",155862,5.841,160.6,1.35,0.147,20.52,109.3694,23.27,24.11,8.57,0,111,13.14,24.11,122.6
"2010-09-13 00:21:00",155863,5.826,160.4,1.423,0.169,20.51,109.3678,23.27,24.11,8.52,0,111,13.14,24.10,122.4
"2010-09-13 00:21:30",155864,5.945,156.9,0.906,0.074,20.46,109.367,23.27,24.08,8.57,0,111,13.14,24.10,118.9
"2010-09-13 00:22:00",155865,5.754,159.2,1.552,0.103,20.48,109.3574,23.24,24.1,8.56,0,111,13.14,24.08,121.2
"2010-09-13 00:22:30",155866,5.907,158.9,1.251,0.082,20.36,109.3521,23.23,24.1,8.52,0,111,13.14,24.06,120.9
"2010-09-13 00:23:00",155867,5.937,158.5,1.433,0.109,20.31,109.3538,23.23,24.09,8.54,0,111,13.14,24.07,120.5
"2010-09-13 00:23:30",155868,5.874,159.1,1.695,0.13,20.29,109.356,23.24,24.1,8.65,0,111,13.15,24.07,121.1
"2010-09-13 00:24:00",155869,5.66,158.5,2.497,0.11,20.3,109.3572,23.24,24.09,8.64,0,111,13.15,24.08,120.5
"2010-09-13 00:24:30",155870,5.681,156.9,1.515,0.151,20.26,109.358,23.25,24.08,8.59,0,111,13.14,24.08,118.9
"2010-09-13 00:25:00",155871,5.69,158.2,0.744,0.064,20.28,109.3608,23.25,24.09,8.77,0,111,13.15,24.09,120.2
"2010-09-13 00:25:30",155872,5.632,157.5,1.067,0.053,20.25,109.3639,23.26,24.09,8.62,0,111,13.15,24.09,119.5
"2010-09-13 00:26:00",155873,5.505,159,1.217,0.07,20.26,109.3684,23.27,24.1,8.54,0,111,13.15,24.11,121.0
"2010-09-13 00:26:30",155874,5.515,157.8,1.166,0.066,20.25,109.3706,23.28,24.1,8.55,0,111,13.15,24.11,119.8
"2010-09-13 00:27:00",155875,5.491,157,0.899,0.066,20.24,109.372,23.28,24.1,8.58,0,111,13.15,24.11,119.0
"2010-09-13 00:27:30",155876,5.471,156.5,0.747,0.106,20.24,109.3726,23.28,24.11,8.7,0,111,13.15,24.12,118.5
"2010-09-13 00:28:00",155877,5.39,155.1,0.807,0.089,20.21,109.3723,23.28,24.1,8.59,0,111,13.15,24.12,117.1
"2010-09-13 00:28:30",155878,5.485,153.7,0.915,0.181,20.23,109.3726,23.28,24.1,8.47,0,111,13.15,24.12,115.7
"2010-09-13 00:29:00",155879,5.271,154.8,1.372,0.104,20.23,109.3726,23.28,24.11,8.45,0,111,13.15,24.12,116.8
"2010-09-13 00:29:30",155880,5.606,152.8,1.295,0.103,20.24,109.3729,23.28,24.12,8.45,0,111,13.15,24.12,114.8
"2010-09-13 00:30:00",155881,5.653,153.7,1.332,0.114,20.24,109.3729,23.28,24.12,8.52,0,111,13.15,24.12,115.7
"2010-09-13 00:30:30",155882,5.597,154.7,1.349,0.15,20.24,109.3729,23.28,24.11,8.65,0,111,13.15,24.12,116.7
"2010-09-13 00:31:00",155883,5.492,152.8,0.843,0.068,20.27,109.3729,23.28,24.11,8.47,0,111,13.15,24.12,114.8
"2010-09-13 00:31:30",155884,5.523,154.3,1.117,0.071,20.25,109.3729,23.28,24.11,8.49,0,111,13.15,24.12,116.3
"2010-09-13 00:32:00",155885,5.472,152.5,1.036,0.069,20.25,109.3729,23.28,24.11,8.47,0,111,13.15,24.12,114.5
"2010-09-13 00:32:30",155886,5.731,154.3,1.484,0.082,20.28,109.3726,23.28,24.11,8.53,0,111,13.15,24.12,116.3
"2010-09-13 00:33:00",155887,5.825,151.6,0.94,0.07,20.28,109.3723,23.28,24.11,8.46,0,111,13.15,24.12,113.6
"2010-09-13 00:33:30",155888,5.794,150.8,0.918,0.081,20.27,109.3726,23.28,24.11,8.43,0,111,13.15,24.12,112.8
"2010-09-13 00:34:00",155889,5.839,151.7,1.332,0.141,20.3,109.3715,23.28,24.11,8.45,0,111,13.15,24.11,113.7
"2010-09-13 00:34:30",155890,6.013,151.5,0.71,0.092,20.27,109.3706,23.28,24.11,8.43,0,111,13.14,24.11,113.5
"2010-09-13 00:35:00",155891,5.904,151.1,0.906,0.091,20.33,109.3678,23.27,24.1,8.45,0,111,13.14,24.10,113.1
"2010-09-13 00:35:30",155892,5.774,151.4,1.223,0.155,20.35,109.3653,23.26,24.11,8.47,0,111,13.14,24.10,113.4
"2010-09-13 00:36:00",155893,5.561,151.6,0.88,0.086,20.34,109.3653,23.26,24.11,8.44,0,111,13.14,24.10,113.6
"2010-09-13 00:36:30",155894,5.704,151.2,1.074,0.121,20.33,109.3667,23.27,24.11,8.46,0,111,13.14,24.10,113.2
"2010-09-13 00:37:00",155895,5.806,150.4,1.031,0.098,20.33,109.3622,23.26,24.1,8.45,0,111,13.14,24.09,112.4
"2010-09-13 00:37:30",155896,5.738,150.5,0.58,0.087,20.36,109.3622,23.26,24.1,8.46,0,111,13.14,24.09,112.5
"2010-09-13 00:38:00",155897,5.653,149.6,0.899,0.106,20.45,109.3631,23.26,24.11,8.46,0,111,13.14,24.09,111.6
"2010-09-13 00:38:30",155898,5.785,149.4,0.726,0.084,20.49,109.3586,23.25,24.09,8.49,0,111,13.14,24.08,111.4
"2010-09-13 00:39:00",155899,5.768,150.5,0.382,0.059,20.53,109.3425,23.21,24.09,8.55,0,111,13.14,24.04,112.5
"2010-09-13 00:39:30",155900,5.891,149.8,1.71,0.108,20.64,109.3392,23.2,24.1,8.53,0,111,13.14,24.03,111.8
"2010-09-13 00:40:00",155901,5.809,148.7,1.772,0.087,20.6,109.3392,23.2,24.08,8.48,0,111,13.14,24.03,110.7
"2010-09-13 00:40:30",155902,5.834,148.3,1.014,0.056,20.63,109.3392,23.2,24.08,8.51,0,111,13.15,24.03,110.3
"2010-09-13 00:41:00",155903,5.963,149.7,0.592,0.151,20.74,109.3392,23.2,24.08,8.57,0,111,13.15,24.03,111.7
"2010-09-13 00:41:30",155904,6.074,151.3,0.855,0.081,20.78,109.3389,23.2,24.06,8.66,0,111,13.15,24.03,113.3
"2010-09-13 00:42:00",155905,5.989,151.1,0.682,0.06,20.79,109.335,23.19,24.06,8.63,0,111,13.15,24.02,113.1
"2010-09-13 00:42:30",155906,5.75,149.4,1.204,0.072,20.73,109.3223,23.15,24.05,8.6,0,111,13.15,23.99,111.4
"2010-09-13 00:43:00",155907,5.847,149.7,0.678,0.088,20.76,109.3144,23.13,24.06,8.56,0,111,13.15,23.97,111.7
"2010-09-13 00:43:30",155908,5.918,147.7,0.663,0.097,20.79,109.3111,23.12,24.03,8.55,0,111,13.15,23.96,109.7
"2010-09-13 00:44:00",155909,5.875,147.1,0.739,0.063,20.7,109.308,23.12,24.03,8.57,0,111,13.15,23.95,109.1
"2010-09-13 00:44:30",155910,5.698,144.9,1.851,0.108,20.8,109.3055,23.11,24.02,8.66,0,111,13.15,23.94,106.9
"2010-09-13 00:45:00",155911,5.671,143.6,0.878,0.102,20.76,109.3055,23.11,24.03,8.66,0,111,13.15,23.94,105.6
"2010-09-13 00:45:30",155912,5.88,144.9,1.362,0.045,20.7,109.3055,23.11,24.03,8.65,0,111,13.15,23.94,106.9
"2010-09-13 00:46:00",155913,5.836,145.9,0.963,0.081,20.7,109.3055,23.11,24.01,8.58,0,111,13.15,23.94,107.9
"2010-09-13 00:46:30",155914,5.947,144.7,0.916,0.049,20.6,109.3055,23.11,24.02,8.59,0,111,13.15,23.94,106.7
"2010-09-13 00:47:00",155915,5.848,145,1.087,0.055,20.59,109.3061,23.11,24.01,8.61,0,111,13.15,23.94,107.0
"2010-09-13 00:47:30",155916,5.671,145.7,0.766,0.076,20.63,109.3061,23.11,24.01,8.65,0,111,13.15,23.94,107.7
"2010-09-13 00:48:00",155917,5.605,146.2,0.616,0.062,20.7,109.3061,23.11,24.01,8.58,0,111,13.15,23.94,108.2
"2010-09-13 00:48:30",155918,5.637,146.7,1.615,0.091,20.69,109.3064,23.11,24,8.61,0,111,13.15,23.95,108.7
"2010-09-13 00:49:00",155919,5.607,146.4,1.848,0.098,20.74,109.3067,23.11,24.02,8.58,0,111,13.15,23.95,108.4
"2010-09-13 00:49:30",155920,5.515,147.6,1.298,0.161,20.79,109.3067,23.11,24.01,8.54,0,111,13.15,23.95,109.6
"2010-09-13 00:50:00",155921,5.701,144.2,1.663,0.2,20.76,109.3073,23.12,24.02,8.63,0,111,13.15,23.95,106.2
"2010-09-13 00:50:30",155922,5.665,143.4,0.882,0.124,20.78,109.3082,23.12,24.02,8.64,0,111,13.15,23.95,105.4
"2010-09-13 00:51:00",155923,5.711,144.4,1.095,0.085,20.83,109.3079,23.12,24.01,8.6,0,111,13.15,23.95,106.4
"2010-09-13 00:51:30",155924,5.636,143.4,1.007,0.074,20.78,109.3088,23.12,24.02,8.78,0,111,13.15,23.95,105.4
"2010-09-13 00:52:00",155925,5.674,143.1,1.404,0.101,20.8,109.3104,23.12,24.02,8.8,0,111,13.15,23.96,105.1
"2010-09-13 00:52:30",155926,5.928,146.9,1.417,0.165,20.85,109.3092,23.12,24.02,8.8,0,111,13.15,23.95,108.9
"2010-09-13 00:53:00",155927,5.989,147.3,1.537,0.091,20.84,109.3125,23.13,24,8.77,0,111,13.15,23.96,109.3
"2010-09-13 00:53:30",155928,5.979,146.5,1.527,0.118,20.84,109.315,23.13,24,8.77,0,111,13.15,23.97,108.5
"2010-09-13 00:54:00",155929,5.845,143.3,1.961,0.122,20.82,109.3218,23.15,23.99,8.79,0,111,13.15,23.99,105.3
"2010-09-13 00:54:30",155930,5.699,145.1,1.042,0.155,20.89,109.3179,23.14,23.99,8.96,0,111,13.15,23.98,107.1
"2010-09-13 00:55:00",155931,5.726,146.3,1.367,0.156,20.9,109.3133,23.13,24,8.84,0,111,13.15,23.96,108.3
"2010-09-13 00:55:30",155932,5.911,148.3,1.036,0.067,20.86,109.311,23.12,23.99,8.78,0,111,13.15,23.96,110.3
"2010-09-13 00:56:00",155933,6.051,147,1.168,0.11,20.9,109.308,23.12,23.97,8.82,0,111,13.15,23.95,109.0
"2010-09-13 00:56:30",155934,6.086,147.6,1.6,0.13,20.9,109.306,23.11,23.99,8.88,0,111,13.15,23.94,109.6
"2010-09-13 00:57:00",155935,6.384,149.6,0.751,0.086,20.82,109.3018,23.1,23.98,8.84,0,111,13.15,23.93,111.6
"2010-09-13 00:57:30",155936,6.261,150.8,1.052,0.074,20.86,109.3008,23.1,23.99,8.71,0,111,13.16,23.93,112.8
"2010-09-13 00:58:00",155937,6.049,149.7,0.557,0.067,20.99,109.2994,23.09,23.98,8.74,0,111,13.16,23.93,111.7
"2010-09-13 00:58:30",155938,6.146,148.3,0.673,0.067,20.98,109.2997,23.1,23.99,8.83,0,111,13.16,23.93,110.3
"2010-09-13 00:59:00",155939,6.185,148.8,0.685,0.219,20.92,109.2997,23.1,23.97,8.84,0,111,13.16,23.93,110.8
"2010-09-13 00:59:30",155940,6.355,147.4,1.349,0.113,20.96,109.3009,23.1,23.97,8.8,0,111,13.16,23.93,109.4
"2010-09-13 01:00:00",155941,6.136,146.7,0.786,0.092,20.96,109.3012,23.1,23.99,8.82,0,111,13.16,23.93,108.7
"2010-09-13 01:00:30",155942,6.202,146.8,1.094,0.124,20.94,109.3028,23.1,23.97,8.88,0,111,13.16,23.94,108.8
"2010-09-13 01:01:00",155943,6.761,148,0.666,0.154,20.93,109.3061,23.11,23.98,8.79,0,110.9,13.16,23.94,110.0
"2010-09-13 01:01:30",155944,6.913,149,1.2,0.162,20.94,109.308,23.12,23.97,8.84,0,111,13.16,23.95,111.0
"2010-09-13 01:02:00",155945,6.907,149.1,0.866,0.082,20.94,109.3075,23.12,23.96,8.84,0,111,13.16,23.95,111.1
"2010-09-13 01:02:30",155946,6.812,146.8,1.626,0.056,20.93,109.3044,23.11,23.97,8.72,0,111,13.16,23.94,108.8
"2010-09-13 01:03:00",155947,6.689,147.4,0.967,0.105,20.88,109.2959,23.09,23.95,8.75,0,111,13.16,23.92,109.4
"2010-09-13 01:03:30",155948,6.748,146.6,0.59,0.041,20.94,109.2872,23.06,23.94,8.76,0,111,13.16,23.90,108.6
"2010-09-13 01:04:00",155949,6.852,147.2,0.716,0.093,20.97,109.2841,23.06,23.94,8.79,0,111,13.16,23.89,109.2
"2010-09-13 01:04:30",155950,7.119,147.6,0.92,0.116,20.86,109.2822,23.05,23.94,8.82,0,111,13.16,23.88,109.6
"2010-09-13 01:05:00",155951,7.141,146.8,0.64,0.056,20.9,109.2777,23.04,23.94,8.85,0,111,13.16,23.87,108.8
"2010-09-13 01:05:30",155952,7.179,146.5,0.724,0.064,20.89,109.2754,23.03,23.94,8.83,0,111,13.16,23.87,108.5
"2010-09-13 01:06:00",155953,7.032,146.1,0.714,0.049,20.96,109.2749,23.03,23.92,8.84,0,111,13.16,23.86,108.1
"2010-09-13 01:06:30",155954,7.002,146.3,0.624,0.057,20.96,109.2749,23.03,23.93,8.85,0,110.9,13.16,23.86,108.3
"2010-09-13 01:07:00",155955,7.056,145.8,0.428,0.047,20.95,109.2749,23.03,23.93,8.81,0,110.9,13.16,23.86,107.8
"2010-09-13 01:07:30",155956,7.021,146.5,0.823,0.085,20.97,109.2749,23.03,23.92,8.79,0,110.9,13.17,23.86,108.5
"2010-09-13 01:08:00",155957,6.964,146.2,0.529,0.064,20.99,109.2749,23.03,23.91,8.81,0,110.9,13.17,23.86,108.2
"2010-09-13 01:08:30",155958,6.891,146.6,0.778,0.044,20.97,109.2749,23.03,23.92,8.8,0,110.9,13.17,23.86,108.6
"2010-09-13 01:09:00",155959,6.747,147.3,0.615,0.052,20.98,109.2749,23.03,23.93,8.8,0,110.9,13.17,23.86,109.3
"2010-09-13 01:09:30",155960,6.55,147.1,0.537,0.101,20.82,109.2749,23.03,23.92,8.79,0,110.9,13.16,23.86,109.1
"2010-09-13 01:10:00",155961,6.525,148.3,0.545,0.067,20.86,109.2749,23.03,23.94,8.77,0,110.9,13.16,23.86,110.3
"2010-09-13 01:10:30",155962,6.513,148.6,0.425,0.044,20.85,109.2752,23.03,23.92,8.76,0,110.9,13.16,23.87,110.6
"2010-09-13 01:11:00",155963,6.483,148.8,0.671,0.047,20.83,109.2749,23.03,23.93,8.75,0,110.9,13.16,23.86,110.8
"2010-09-13 01:11:30",155964,6.434,150.6,1.028,0.054,20.89,109.2752,23.03,23.92,8.75,0,110.9,13.16,23.87,112.6
"2010-09-13 01:12:00",155965,6.449,151.7,0.643,0.098,20.93,109.2767,23.04,23.95,8.73,0,110.9,13.16,23.87,113.7
"2010-09-13 01:12:30",155966,6.724,152.4,0.646,0.129,20.97,109.2789,23.04,23.93,8.72,0,110.9,13.16,23.87,114.4
"2010-09-13 01:13:00",155967,6.806,151.5,0.981,0.121,21.01,109.2776,23.04,23.94,8.72,0,110.9,13.17,23.87,113.5
"2010-09-13 01:13:30",155968,6.704,151.3,0.584,0.162,21.02,109.281,23.05,23.93,8.73,0,110.9,13.17,23.88,113.3
"2010-09-13 01:14:00",155969,6.601,149.9,1.424,0.134,20.99,109.2832,23.05,23.94,8.72,0,110.9,13.17,23.89,111.9
"2010-09-13 01:14:30",155970,6.427,152.1,1.026,0.082,20.94,109.2835,23.05,23.94,8.69,0,110.9,13.17,23.89,114.1
"2010-09-13 01:15:00",155971,6.299,152.5,0.865,0.1,20.89,109.2868,23.06,23.93,8.69,0,110.9,13.17,23.89,114.5
"2010-09-13 01:15:30",155972,6.316,150.6,0.885,0.049,20.87,109.2942,23.08,23.93,8.69,0,110.9,13.17,23.91,112.6
"2010-09-13 01:16:00",155973,6.264,150.1,0.927,0.087,20.93,109.2985,23.09,23.93,8.7,0,110.9,13.17,23.93,112.1
"2010-09-13 01:16:30",155974,6.282,150,0.568,0.042,20.98,109.301,23.1,23.95,8.7,0,110.9,13.17,23.93,112.0
"2010-09-13 01:17:00",155975,6.15,151.1,0.509,0.047,20.98,109.3016,23.1,23.94,8.68,0,110.9,13.18,23.93,113.1
"2010-09-13 01:17:30",155976,6.008,151.4,0.721,0.062,21.04,109.3022,23.1,23.94,8.69,0,110.9,13.18,23.93,113.4
"2010-09-13 01:18:00",155977,5.879,150.9,0.51,0.061,21.03,109.3028,23.1,23.95,8.69,0,110.9,13.18,23.94,112.9
"2010-09-13 01:18:30",155978,5.931,151.7,0.646,0.104,21.07,109.3038,23.11,23.95,8.67,0,110.9,13.18,23.94,113.7
"2010-09-13 01:19:00",155979,5.923,151.3,0.882,0.072,21.06,109.3032,23.1,23.93,8.68,0,110.9,13.18,23.94,113.3
"2010-09-13 01:19:30",155980,5.832,152.5,1.495,0.076,21.07,109.3032,23.1,23.94,8.67,0,110.9,13.18,23.94,114.5
"2010-09-13 01:20:00",155981,5.921,152.7,1.271,0.074,21.04,109.3051,23.11,23.94,8.65,0,110.9,13.18,23.94,114.7
"2010-09-13 01:20:30",155982,5.886,153.1,0.643,0.096,21.09,109.3078,23.12,23.94,8.65,0,110.9,13.18,23.95,115.1
"2010-09-13 01:21:00",155983,5.857,154.2,0.758,0.051,21.08,109.3106,23.12,23.95,8.65,0,110.9,13.18,23.96,116.2
"2010-09-13 01:21:30",155984,5.901,153.5,0.736,0.033,21.09,109.31,23.12,23.95,8.66,0,110.9,13.18,23.95,115.5
"2010-09-13 01:22:00",155985,5.851,152.6,0.779,0.077,21.07,109.3044,23.11,23.94,8.66,0,110.9,13.18,23.94,114.6
"2010-09-13 01:22:30",155986,5.878,151.1,0.577,0.056,21.04,109.2988,23.09,23.94,8.65,0,110.9,13.18,23.93,113.1
"2010-09-13 01:23:00",155987,5.833,151.6,0.866,0.071,21.05,109.2949,23.08,23.95,8.65,0,110.9,13.18,23.92,113.6
"2010-09-13 01:23:30",155988,5.751,151.9,1.861,0.104,20.96,109.2898,23.07,23.94,8.66,0,110.9,13.18,23.90,113.9
"2010-09-13 01:24:00",155989,5.813,150.4,0.768,0.084,20.95,109.2892,23.07,23.94,8.65,0,110.9,13.18,23.90,112.4
"2010-09-13 01:24:30",155990,5.718,151.4,0.606,0.06,20.9,109.2873,23.06,23.95,8.65,0,110.9,13.18,23.90,113.4
"2010-09-13 01:25:00",155991,5.557,149.4,0.707,0.11,20.96,109.2867,23.06,23.95,8.64,0,110.9,13.18,23.89,111.4
"2010-09-13 01:25:30",155992,5.603,149.1,0.506,0.064,20.93,109.2867,23.06,23.93,8.64,0,110.9,13.18,23.89,111.1
"2010-09-13 01:26:00",155993,5.595,148.9,0.424,0.031,20.98,109.2864,23.06,23.94,8.64,0,110.9,13.17,23.89,110.9
"2010-09-13 01:26:30",155994,5.685,148.6,0.669,0.072,20.92,109.2853,23.06,23.95,8.63,0,110.9,13.17,23.89,110.6
"2010-09-13 01:27:00",155995,5.651,148.2,0.525,0.061,20.96,109.2811,23.05,23.95,8.63,0,110.9,13.17,23.88,110.2
"2010-09-13 01:27:30",155996,5.669,149.9,1.353,0.035,20.9,109.2811,23.05,23.95,8.65,0,110.9,13.17,23.88,111.9
"2010-09-13 01:28:00",155997,5.636,150.8,0.57,0.072,20.87,109.2797,23.04,23.94,8.66,0,110.9,13.17,23.88,112.8
"2010-09-13 01:28:30",155998,5.849,150.9,0.599,0.118,20.98,109.2791,23.04,23.94,8.66,0,110.9,13.17,23.88,112.9
"2010-09-13 01:29:00",155999,5.763,153.6,1.623,0.128,21.02,109.278,23.04,23.94,8.66,0,110.9,13.17,23.87,115.6
"2010-09-13 01:29:30",156000,5.747,154.6,2.058,0.104,21.07,109.278,23.04,23.95,8.64,0,110.9,13.17,23.87,116.6
"2010-09-13 01:30:00",156001,5.65,151.5,0.681,0.111,20.9,109.278,23.04,23.95,8.69,0,110.9,13.17,23.87,113.5
"2010-09-13 01:30:30",156002,5.555,150.6,1.089,0.098,20.96,109.278,23.04,23.96,8.69,0,110.9,13.18,23.87,112.6
"2010-09-13 01:31:00",156003,5.588,152.2,2.944,0.076,20.96,109.278,23.04,23.94,8.67,0,110.9,13.18,23.87,114.2
"2010-09-13 01:31:30",156004,5.629,151,0.999,0.103,20.93,109.278,23.04,23.94,8.66,0,110.9,13.19,23.87,113.0
"2010-09-13 01:32:00",156005,5.399,151,0.926,0.075,21.09,109.278,23.04,23.94,8.67,0,110.9,13.19,23.87,113.0
"2010-09-13 01:32:30",156006,5.397,150.5,0.661,0.088,21.09,109.278,23.04,23.94,8.66,0,110.9,13.19,23.87,112.5
"2010-09-13 01:33:00",156007,5.269,150.6,0.672,0.096,21.08,109.278,23.04,23.95,8.65,0,110.9,13.19,23.87,112.6
"2010-09-13 01:33:30",156008,5.446,148.9,1.009,0.048,21.09,109.278,23.04,23.96,8.64,0,110.9,13.19,23.87,110.9
"2010-09-13 01:34:00",156009,5.348,149.7,0.429,0.061,21.12,109.278,23.04,23.95,8.63,0,110.9,13.19,23.87,111.7
"2010-09-13 01:34:30",156010,5.375,151.1,1.398,0.081,21.04,109.2783,23.04,23.96,8.64,0,110.9,13.19,23.87,113.1
"2010-09-13 01:35:00",156011,5.243,151.9,1.013,0.07,21.05,109.278,23.04,23.95,8.65,0,110.9,13.19,23.87,113.9
"2010-09-13 01:35:30",156012,5.162,152.7,1.354,0.05,21.05,109.2783,23.04,23.94,8.64,0,110.9,13.19,23.87,114.7
"2010-09-13 01:36:00",156013,5.404,152,0.763,0.092,21.04,109.2783,23.04,23.96,8.64,0,110.9,13.19,23.87,114.0
"2010-09-13 01:36:30",156014,5.224,153.8,1.221,0.128,21.02,109.2798,23.04,23.94,8.65,0,110.9,13.19,23.88,115.8
"2010-09-13 01:37:00",156015,5.128,155.7,1.383,0.084,21.07,109.2826,23.05,23.94,8.63,0,110.9,13.19,23.88,117.7
"2010-09-13 01:37:30",156016,4.937,155.2,0.83,0.11,20.94,109.282,23.05,23.94,8.64,0,110.9,13.19,23.88,117.2
"2010-09-13 01:38:00",156017,5.196,153.3,0.852,0.065,21.04,109.2814,23.05,23.94,8.62,0,110.9,13.19,23.88,115.3
"2010-09-13 01:38:30",156018,5.099,153.4,0.707,0.045,20.98,109.2829,23.05,23.93,8.61,0,110.9,13.19,23.88,115.4
"2010-09-13 01:39:00",156019,4.94,153.9,0.435,0.044,20.79,109.2826,23.05,23.93,8.6,0,110.9,13.19,23.88,115.9
"2010-09-13 01:39:30",156020,4.937,155.4,0.655,0.058,20.89,109.2829,23.05,23.94,8.61,0,110.9,13.19,23.88,117.4
"2010-09-13 01:40:00",156021,5.021,154.1,0.763,0.07,20.95,109.2823,23.05,23.93,8.61,0,110.9,13.19,23.88,116.1
"2010-09-13 01:40:30",156022,5.074,153.9,0.583,0.026,21.02,109.2866,23.06,23.93,8.6,0,110.9,13.19,23.89,115.9
"2010-09-13 01:41:00",156023,5.013,154.3,0.53,0.062,20.95,109.2867,23.06,23.93,8.61,0,110.9,13.19,23.89,116.3
"2010-09-13 01:41:30",156024,4.902,155.5,0.526,0.028,20.85,109.2887,23.07,23.92,8.6,0,110.9,13.19,23.90,117.5
"2010-09-13 01:42:00",156025,4.876,156,0.197,0.039,20.85,109.29,23.07,23.93,8.59,0,110.9,13.19,23.90,118.0
"2010-09-13 01:42:30",156026,4.883,155.9,0.297,0.042,20.86,109.2931,23.08,23.95,8.62,0,110.9,13.19,23.91,117.9
"2010-09-13 01:43:00",156027,4.943,155.8,0.686,0.047,21,109.2912,23.07,23.94,8.62,0,110.9,13.19,23.91,117.8
"2010-09-13 01:43:30",156028,4.997,156.3,0.34,0.051,21.08,109.2912,23.07,23.93,8.62,0,110.9,13.18,23.91,118.3
"2010-09-13 01:44:00",156029,4.978,155.6,0.589,0.04,21.04,109.2967,23.09,23.94,8.62,0,110.9,13.18,23.92,117.6
"2010-09-13 01:44:30",156030,5.042,155,0.044,0.021,21.09,109.2989,23.09,23.95,8.61,0,110.9,13.18,23.93,117.0
"2010-09-13 01:45:00",156031,4.997,155.8,0.612,0.042,21.08,109.3014,23.1,23.95,8.62,0,110.9,13.19,23.93,117.8
"2010-09-13 01:45:30",156032,4.941,154.9,0.326,0.031,20.91,109.3029,23.1,23.94,8.61,0,110.9,13.18,23.94,116.9
"2010-09-13 01:46:00",156033,4.98,154.4,0.536,0.05,20.94,109.3063,23.11,23.95,8.59,0,110.9,13.19,23.95,116.4
"2010-09-13 01:46:30",156034,5.042,155,0.857,0.038,21.04,109.3087,23.12,23.95,8.6,0,110.9,13.19,23.95,117.0
"2010-09-13 01:47:00",156035,5.032,153.6,0.788,0.037,20.96,109.309,23.12,23.96,8.6,0,110.9,13.19,23.95,115.6
"2010-09-13 01:47:30",156036,5.05,153.1,0.485,0.036,20.94,109.3109,23.12,23.95,8.59,0,110.9,13.19,23.96,115.1
"2010-09-13 01:48:00",156037,4.971,153.2,0.666,0.062,20.81,109.3106,23.12,23.95,8.57,0,110.9,13.19,23.96,115.2
"2010-09-13 01:48:30",156038,4.988,154.1,0.736,0.071,20.88,109.3118,23.13,23.94,8.59,0,110.9,13.19,23.96,116.1
"2010-09-13 01:49:00",156039,4.984,153.8,0.428,0.052,20.84,109.313,23.13,23.95,8.62,0,110.9,13.19,23.96,115.8
"2010-09-13 01:49:30",156040,5.09,154.4,0.775,0.072,21.03,109.3103,23.12,23.94,8.61,0,110.9,13.19,23.96,116.4